Theta_e
298 304 303 301 302 302 298 299 294 304 306 310 312 316 319 323 327 331 329 329 333 332 331 331 332 334 333 337 337 338 336 336 338 345 345 348 348 349 349 349 347 349 349 349
294 301 301 303 305 307 307 311 309 308 306 315 314 315 316 317 320 326 329 334 336 337 334 333 333 332 334 337 337 339 336 335 337 339 343 344 347 348 347 347 347 348 348 344
289 296 297 297 302 307 312 316 310 304 306 310 309 312 314 318 324 326 328 329 330 336 334 334 334 333 331 335 338 338 335 337 337 338 338 337 342 346 346 346 346 343 342 337
289 293 290 300 308 310 309 316 318 317 317 319 318 322 323 326 324 325 325 325 325 331 334 336 337 336 334 334 333 333 333 332 333 334 333 334 337 338 339 341 341 337 330 326
289 287 294 303 307 304 306 307 317 315 318 321 322 320 321 322 322 322 322 322 322 325 329 333 333 332 330 329 329 328 328 329 330 330 330 330 332 335 339 337 333 327 325 322
289 286 285 298 307 308 310 300 312 316 315 315 313 304 313 318 318 317 318 318 318 319 321 324 329 329 326 325 325 324 324 324 326 327 327 328 331 329 330 327 325 323 321 320
290 289 296 306 309 308 295 299 312 314 312 310 306 310 318 315 314 315 316 316 317 316 315 318 325 324 322 323 321 322 321 320 321 323 324 328 330 327 324 322 320 320 318 317
289 287 289 309 309 301 304 307 316 317 319 318 318 318 316 312 312 312 314 315 316 314 314 316 318 318 316 316 319 318 317 316 317 318 323 327 328 326 322 320 319 319 318 316
292 293 302 307 306 309 308 306 307 317 321 320 317 314 312 310 310 308 312 312 313 312 312 314 316 317 315 315 317 317 315 315 313 309 310 311 313 315 323 324 320 317 316 313
295 300 303 306 308 308 309 309 311 323 321 320 315 314 311 310 309 306 307 306 307 307 307 308 311 314 315 316 317 317 316 312 307 305 304 304 305 304 307 311 321 316 315 309
297 299 303 306 308 309 310 314 321 322 321 318 315 312 310 308 308 307 306 306 306 306 305 306 308 311 314 315 316 313 313 312 309 304 300 297 297 297 299 298 303 310 311 309
293 301 300 301 307 310 309 313 313 319 317 317 315 312 310 308 308 307 306 305 304 304 304 305 306 307 309 314 314 313 312 311 309 306 302 300 295 296 299 297 296 296 296 298
303 307 307 309 311 314 312 314 316 320 318 315 314 312 310 308 308 310 309 304 304 303 303 303 304 306 306 307 308 310 309 309 310 308 305 302 300 297 293 298 298 296 295 295
310 308 304 308 305 310 313 314 320 322 319 317 315 313 311 309 308 307 306 305 304 303 304 304 303 303 305 306 307 306 305 306 304 305 306 305 302 298 296 296 296 296 297 296
310 307 305 307 307 308 312 313 318 318 318 317 317 314 313 310 307 307 307 308 307 305 304 304 304 305 307 308 307 306 303 302 305 304 310 310 308 303 301 301 297 297 297 298
309 308 307 309 309 312 313 309 310 316 318 317 316 314 314 313 311 310 309 308 305 304 305 304 303 304 306 306 306 305 304 309 306 303 301 301 305 302 300 302 299 297 298 299
303 302 303 307 308 307 307 310 313 315 316 317 316 315 314 313 311 310 310 310 308 307 307 306 306 307 306 306 304 304 304 301 306 300 300 300 300 299 302 304 301 299 299 300
307 307 306 306 306 307 308 312 312 313 312 313 316 315 315 313 312 311 311 311 310 310 310 310 308 308 309 308 306 305 304 303 299 299 300 298 299 298 300 301 304 303 298 295
308 307 310 309 308 307 309 309 308 308 309 309 310 311 313 314 312 311 309 311 310 309 313 312 315 314 309 310 310 305 304 304 301 298 298 300 300 300 300 300 299 299 297 295
308 308 308 309 309 309 307 307 307 306 307 306 308 309 309 309 310 309 308 307 309 314 313 313 315 312 310 311 319 308 307 305 303 301 298 298 299 298 299 299 299 300 298 297
306 307 307 306 306 307 307 306 306 305 306 308 307 307 307 308 309 308 305 305 307 311 312 313 311 311 311 313 316 309 306 305 305 300 301 301 299 300 298 299 299 300 299 299
304 305 305 306 305 305 306 306 307 306 305 306 306 305 303 302 303 303 303 303 304 310 311 310 310 313 313 318 310 309 308 307 305 305 303 302 303 300 302 303 303 302 301 299
304 305 305 304 307 306 306 307 306 306 305 304 305 304 303 303 301 299 298 302 308 310 309 310 312 314 315 308 307 306 305 304 303 303 304 304 304 302 302 300 300 301 300 302
305 305 305 306 307 307 304 306 304 308 309 309 309 305 304 301 301 302 302 305 307 307 305 307 310 312 311 306 306 305 304 304 303 302 302 300 301 300 301 301 303 303 303 302
308 306 305 307 307 306 306 307 306 307 306 304 305 304 303 303 302 303 303 306 306 306 305 309 310 309 306 305 305 304 304 303 302 302 301 300 300 300 300 300 301 301 301 302
304 304 303 304 306 307 307 306 304 303 303 305 306 304 304 302 304 306 307 307 305 306 304 303 303 303 303 303 303 303 303 303 302 300 301 300 299 300 300 300 300 300 300 300
303 302 302 302 302 303 305 304 303 301 301 303 301 302 303 303 303 302 302 301 303 304 303 303 304 304 303 303 303 303 303 303 302 302 300 300 299 298 298 299 299 302 304 303
Wind_Speed
2 2 3 3 7 10 7 5 5 3 5 2 1 2 5 5 6 4 12 15 11 11 7 10 12 8 6 6 6 5 6 3 2 5 6 6 7 7 6 6 5 6 6 6
6 6 6 8 16 19 12 12 12 9 6 2 4 2 2 6 5 8 10 9 11 6 9 10 11 10 4 7 6 4 3 3 1 4 6 6 6 6 6 6 6 5 5 5
3 6 3 10 8 17 13 12 3 4 2 4 4 3 5 6 10 12 11 13 16 7 1 5 7 5 4 4 5 5 5 5 7 7 5 3 3 2 6 6 5 3 5 5
1 6 6 5 5 12 16 9 9 9 4 4 6 7 9 7 14 11 11 10 8 6 10 4 3 6 10 9 9 8 9 7 6 3 5 5 3 5 4 2 3 4 5 6
4 1 1 1 4 3 6 2 3 7 6 7 5 5 8 12 10 11 8 7 8 7 4 13 9 10 10 9 8 10 9 5 2 4 6 5 3 2 2 5 7 7 6 7
2 3 2 1 4 5 4 2 5 5 4 6 1 3 2 3 6 8 8 5 5 7 8 9 4 9 11 10 9 8 7 5 4 5 5 5 5 6 7 8 8 7 8 8
2 2 1 3 8 4 5 6 5 3 4 4 3 2 6 6 6 6 6 6 5 9 9 6 8 10 9 9 9 7 6 5 5 5 5 5 7 7 8 9 9 10 8 10
3 4 1 4 3 7 5 7 5 4 3 9 10 9 7 6 4 4 5 5 7 7 9 7 8 11 10 10 7 6 6 6 6 6 5 5 8 7 7 8 9 4 8 7
5 6 3 4 5 5 4 3 2 5 6 11 10 6 5 5 4 3 4 5 5 5 6 5 6 7 11 5 7 6 7 7 6 6 7 8 7 5 5 5 5 4 4 5
4 2 1 3 4 6 8 6 3 6 12 11 10 9 7 6 5 4 4 5 4 6 6 6 7 7 7 5 4 6 8 8 6 7 7 7 5 5 5 4 4 4 3 3
1 1 2 5 5 5 3 9 14 7 7 8 10 8 7 6 5 5 5 5 5 5 4 5 4 5 5 5 4 6 6 5 7 4 6 7 7 4 4 3 1 3 3 3
7 9 6 6 7 3 4 5 5 12 8 6 7 8 7 7 6 5 6 5 5 4 4 3 3 3 3 3 4 5 5 4 4 3 3 5 5 4 8 7 9 10 8 4
6 6 4 3 5 3 2 2 5 9 11 12 7 8 7 7 7 8 7 7 7 7 6 5 4 4 2 1 2 4 3 3 3 4 4 3 1 4 5 4 9 9 9 9
8 8 2 2 4 6 4 3 7 7 6 7 7 5 5 4 3 5 7 6 7 7 7 7 5 4 3 3 3 1 2 4 3 3 3 2 1 3 1 2 5 2 5 5
8 6 5 2 6 7 6 2 6 10 9 8 8 9 8 8 8 6 6 7 7 6 5 5 5 6 4 5 4 4 4 3 4 3 4 5 4 1 1 3 0 5 3 3
7 6 4 6 8 7 5 4 8 9 9 6 8 8 9 7 6 7 7 8 8 7 7 7 6 6 5 4 4 2 3 5 4 4 3 3 4 5 5 3 1 0 1 4
6 5 1 1 5 6 5 7 6 6 6 9 9 7 8 7 7 7 8 9 7 8 9 9 9 6 6 6 5 3 3 3 3 0 2 2 4 4 6 5 5 5 5 5
7 6 7 7 7 6 7 10 9 8 5 7 7 7 7 8 10 9 7 7 6 6 7 9 7 7 7 6 6 4 4 3 3 3 2 1 3 2 3 5 7 6 4 4
4 5 4 5 7 9 10 9 8 9 9 8 8 7 7 7 6 6 6 6 7 8 10 7 13 12 9 10 9 5 4 3 3 3 4 4 2 4 4 5 4 5 5 4
3 7 8 8 9 14 10 7 9 8 7 9 8 7 5 3 2 3 6 7 8 9 5 8 8 7 8 9 13 5 5 4 5 5 4 4 4 4 3 4 5 5 5 5
7 9 10 10 9 9 9 8 9 8 7 8 9 8 7 5 4 4 2 2 6 7 8 8 6 5 5 7 5 5 5 4 3 2 3 3 3 3 3 3 4 4 5 5
7 8 9 9 9 7 6 7 8 8 8 9 8 7 6 4 3 0 4 6 5 4 2 3 4 8 7 14 5 5 5 5 4 4 3 3 4 4 3 2 2 4 4 3
7 7 8 9 11 10 9 12 11 11 9 8 7 4 3 2 3 2 3 5 3 4 3 3 4 9 8 5 5 5 5 5 5 5 5 4 4 4 5 5 4 3 4 3
5 6 5 7 9 11 11 5 7 7 7 7 4 3 3 2 2 1 2 1 4 5 2 1 3 7 9 4 5 5 5 5 5 5 5 7 4 4 3 4 4 4 4 4
6 5 6 10 9 5 9 9 7 7 7 4 3 3 4 3 4 3 2 4 7 5 4 5 7 7 3 4 5 5 5 4 4 4 5 4 5 5 5 5 5 5 5 4
7 5 5 5 6 7 6 5 4 4 5 3 2 3 3 3 3 4 3 4 5 5 4 2 2 3 3 3 2 2 3 3 4 3 4 3 3 4 5 5 5 5 5 5
6 6 5 4 2 4 5 5 4 3 3 4 4 3 5 4 3 3 4 4 4 4 3 2 2 3 2 2 2 2 3 3 3 3 4 4 3 4 3 3 4 4 3 3
Wind_Direction
274 252 206 241 28 23 21 280 145 110 104 143 296 209 328 333 357 153 160 156 173 176 161 165 174 183 202 99 112 163 161 157 296 287 233 221 198 201 211 202 209 203 195 204
1 359 321 70 47 49 48 58 71 79 62 213 64 4 339 1 12 28 50 38 129 126 164 173 189 198 189 129 138 155 176 200 187 332 304 226 216 197 196 194 210 200 214 155
303 318 345 41 359 58 53 29 68 41 58 48 59 26 348 30 45 52 54 58 29 327 149 224 186 137 104 82 51 124 73 37 25 36 351 13 311 211 185 201 168 164 120 115
277 4 57 219 312 92 72 61 82 79 70 108 105 67 38 55 105 91 81 88 91 30 54 43 86 95 89 80 70 79 85 48 39 47 30 11 43 9 322 251 146 109 99 91
105 92 304 62 339 25 123 346 91 125 128 141 147 86 40 25 47 89 96 108 110 108 84 83 87 100 94 87 91 91 98 116 84 82 57 38 53 299 41 95 100 98 100 88
74 107 140 271 307 341 96 40 191 151 168 188 108 63 246 58 66 73 74 57 67 80 74 75 79 111 114 118 117 108 103 102 92 90 101 78 62 62 66 83 90 87 91 74
76 112 260 320 303 326 93 221 170 198 186 192 125 232 108 93 56 54 68 70 57 78 73 67 89 105 95 91 78 72 75 78 61 57 73 69 84 77 81 83 85 93 88 73
80 97 229 338 354 105 227 307 187 177 132 104 114 98 91 81 68 71 90 66 67 63 75 61 79 96 90 83 87 95 87 69 68 47 30 57 85 89 83 104 104 77 89 79
154 208 214 302 136 201 192 219 306 167 138 134 128 120 121 113 103 78 72 61 34 52 77 67 72 95 103 109 110 112 98 93 68 66 61 46 63 61 93 103 110 102 77 75
80 142 175 235 252 204 191 163 207 160 147 146 136 136 124 117 135 128 103 89 70 75 69 47 34 47 76 78 84 97 101 95 80 80 71 59 58 55 66 56 101 112 99 99
26 319 223 259 256 265 192 77 104 124 140 137 130 138 144 141 139 137 120 101 91 84 88 97 86 80 77 73 68 82 82 85 91 75 79 82 56 35 91 81 30 128 112 128
213 207 167 221 216 236 321 83 120 134 133 154 151 151 137 142 150 139 121 101 96 102 112 111 94 86 71 73 108 114 111 104 106 110 112 119 107 79 49 59 66 64 70 109
187 155 209 267 208 234 229 295 158 153 154 155 153 151 158 158 164 144 135 137 150 165 165 159 171 177 201 182 104 123 112 117 121 114 115 78 14 128 120 39 56 50 63 73
132 110 40 197 220 251 252 253 160 140 129 132 130 123 118 116 106 139 154 170 158 162 169 168 167 203 226 175 135 127 110 118 117 131 112 87 179 124 126 164 127 91 50 65
171 180 195 194 164 218 235 282 153 144 154 155 149 152 153 160 164 177 168 159 155 161 180 173 181 205 182 172 168 172 169 189 168 161 159 173 150 104 333 117 208 136 125 37
215 225 269 192 203 200 228 111 135 155 164 147 159 165 171 171 174 175 164 159 155 185 188 182 197 212 196 184 195 199 230 251 218 200 223 212 178 165 183 181 127 240 175 185
162 209 166 159 177 167 152 121 129 140 130 149 171 159 153 166 169 175 184 186 179 181 190 186 209 200 204 197 194 205 208 230 205 198 250 216 164 176 188 167 174 197 194 202
161 193 215 168 184 155 112 116 110 108 126 143 138 145 160 174 195 197 197 172 179 201 206 204 195 192 199 201 205 211 208 207 182 199 191 220 248 232 161 172 189 187 202 210
168 172 200 160 143 119 123 122 119 118 111 117 109 141 181 200 208 197 176 180 193 213 234 198 199 191 195 203 194 195 203 224 240 235 218 211 266 241 205 204 194 186 179 174
147 111 118 118 112 126 133 132 126 118 128 113 112 100 93 87 134 172 165 197 204 215 209 201 193 195 197 205 206 182 186 211 235 224 210 204 202 205 226 161 175 189 177 187
142 133 128 126 126 127 136 143 133 135 133 114 122 139 153 174 181 154 131 199 250 223 215 210 192 195 185 186 199 153 169 151 102 263 195 190 207 218 239 192 168 179 189 183
155 152 147 141 134 123 127 126 111 106 98 92 92 101 101 78 78 185 216 207 256 251 221 230 210 189 188 184 166 180 183 178 199 143 178 181 136 110 118 58 231 159 187 169
163 172 162 147 142 136 121 114 113 110 105 104 94 86 112 173 177 164 278 278 230 168 179 206 192 181 176 156 168 181 196 207 208 201 208 201 208 162 160 159 194 162 150 122
119 140 145 111 127 126 128 145 124 113 115 130 144 206 164 102 350 346 268 194 135 120 93 262 218 164 140 162 167 177 192 188 191 184 189 189 184 181 195 187 206 212 192 169
127 127 128 146 154 137 135 141 135 140 147 150 158 229 198 178 158 208 163 102 100 97 85 58 84 123 128 153 168 177 187 179 183 193 200 202 216 213 218 218 220 223 233 239
127 133 138 144 139 142 144 140 145 188 145 160 220 180 153 142 161 153 155 154 148 145 153 173 76 74 79 91 78 187 192 188 168 179 192 195 209 224 229 218 206 214 209 198
108 113 116 104 117 147 148 148 154 190 156 170 163 158 155 164 174 176 150 134 153 185 180 185 173 159 141 154 154 159 159 157 164 174 186 192 198 217 231 222 218 226 212 196